Location: Weatherford
(35.5260°N, 98.7070°W)
Time: 04:49:10
(UTC-05:00)

Amateur Radio Satellites - All Passes

Search period start: 21 April 2015 04:19
Search period end: 22 April 2015 04:19
Location: Weatherford, 35.5260°N, 98.7070°W

Satellite Date Start Highest point End Downlink Frequencies (MHz)
Time Altitude Azimuth
BEESAT 2 21 Apr 04:26:32 04:30:20 39° 115° (ESE) 04:34:14 435.950
Gurwin Techsat 1B 21 Apr 04:29:22 04:34:37 62° 286° (WNW) 04:39:50 435.225
ITAMSAT 1 21 Apr 04:30:33 04:35:33 50° 287° (WNW) 04:40:31 435.822/435.867
CUSAT 1 21 Apr 04:30:36 04:35:57 22° 70° (ENE) 04:42:09 437.405
BEESAT 3 21 Apr 04:31:46 04:35:44 57° 117° (ESE) 04:39:47 437.485
HORYU 2 21 Apr 04:33:59 04:37:51 28° 96° (E) 04:41:44 437.375
DANDE 21 Apr 04:35:50 04:40:31 19° 69° (ENE) 04:46:08 436.750
AIST 2 21 Apr 04:55:08 04:58:35 25° 112° (ESE) 05:02:09 435.215
JUGNU 21 Apr 05:01:17 05:04:42 16° 175° (S) 05:08:08 437.505
SRMSAT 21 Apr 05:03:31 05:04:11 10° 166° (SSE) 05:04:59 437.500
STARS 21 Apr 05:05:09 05:08:00 16° 268° (W) 05:10:41 437.465
MOZHAYETS 4 21 Apr 05:21:14 05:25:50 64° 76° (ENE) 05:30:27
AO-7 21 Apr 05:21:57 05:30:04 55° 102° (ESE) 05:38:12 29.400- 29.500
M-CUBED/EXP-1 PRIME 21 Apr 05:27:59 05:30:19 14° 61° (ENE) 05:32:54 437.505
JAS-2 21 Apr 05:44:58 05:51:33 86° 102° (ESE) 05:57:19 435.910
GONETS M04 21 Apr 06:02:34 06:11:11 57° 269° (W) 06:19:42
BEESAT 2 21 Apr 06:05:49 06:08:40 17° 311° (NW) 06:11:26 435.950
HORYU 2 21 Apr 06:10:47 06:14:23 23° 290° (WNW) 06:17:51 437.375
CUSAT 1 21 Apr 06:11:50 06:19:10 72° 264° (W) 06:27:27 437.405
BEESAT 3 21 Apr 06:12:06 06:14:11 13° 314° (NW) 06:16:05 437.485
AUBIESAT-1 21 Apr 06:13:04 06:17:19 35° 67° (ENE) 06:21:43 437.475
DANDE 21 Apr 06:17:07 06:24:17 81° 263° (W) 06:32:46 436.750
PRISM 21 Apr 06:19:42 06:20:41 11° 67° (ENE) 06:21:54 437.425
STRAND 1 21 Apr 06:25:37 06:27:32 12° 64° (ENE) 06:29:46 437.568
Cosmos 2499 21 Apr 06:33:02 06:40:13 38° 74° (ENE) 06:47:02 435.465 / 435.565
AIST 2 21 Apr 06:33:27 06:37:06 27° 307° (NW) 06:40:45 435.215
CUTE-I 21 Apr 06:43:25 06:46:13 15° 91° (E) 06:49:18 437.470
CUBESAT XI-V 21 Apr 06:43:38 06:47:51 35° 72° (ENE) 06:52:05 437.345
SRMSAT 21 Apr 06:49:07 06:52:37 16° 175° (S) 06:56:09 437.500
JUGNU 21 Apr 06:49:31 06:52:59 16° 185° (S) 06:56:25 437.505
Cubesat XI-IV 21 Apr 06:50:54 06:54:23 18° 92° (E) 06:58:06 437.490
M-CUBED/EXP-1 PRIME 21 Apr 07:00:01 07:04:39 64° 255° (WSW) 07:09:29 437.505
MOZHAYETS 4 21 Apr 07:02:47 07:03:34 10° 272° (W) 07:04:00
AO-7 21 Apr 07:15:26 07:22:31 31° 298° (WNW) 07:29:24 29.400- 29.500
JAS-2 21 Apr 07:32:33 07:35:39 13° 301° (WNW) 07:38:14 435.910
AUBIESAT-1 21 Apr 07:48:28 07:52:10 22° 262° (W) 07:55:49 437.475
PRISM 21 Apr 07:51:37 07:55:44 55° 259° (W) 07:59:51 437.425
CUSAT 1 21 Apr 07:58:42 08:01:23 11° 274° (W) 08:03:23 437.405
STRAND 1 21 Apr 08:01:07 08:06:14 71° 259° (W) 08:11:20 437.568
DANDE 21 Apr 08:03:30 08:07:11 14° 273° (W) 08:10:26 436.750
CUTE-I 21 Apr 08:21:32 08:26:45 57° 287° (WNW) 08:31:56 437.470
CUBESAT XI-V 21 Apr 08:22:01 08:25:25 19° 267° (W) 08:28:38 437.345
Cosmos 2499 21 Apr 08:26:21 08:33:17 35° 273° (W) 08:39:39 435.465 / 435.565
Cubesat XI-IV 21 Apr 08:29:42 08:34:47 47° 288° (WNW) 08:39:51 437.490
BRITE-PL 21 Apr 08:35:49 08:38:11 14° 91° (E) 08:40:57 437.365/2234.400
SRMSAT 21 Apr 08:37:33 08:41:04 16° 185° (S) 08:44:32 437.500
JUGNU 21 Apr 08:40:39 08:41:14 10° 194° (SSW) 08:41:43 437.505
HO-68 21 Apr 08:44:32 08:46:21 11° 87° (E) 08:48:49 435.675
GOMX 1 21 Apr 08:49:51 08:51:39 12° 90° (E) 08:53:51 467.674
PCSat 21 Apr 09:03:03 09:06:42 19° 107° (ESE) 09:10:34 145.827
CANX-2 21 Apr 09:07:45 09:09:00 11° 89° (E) 09:10:31 2200.000
O/OREOS (USA 219) 21 Apr 09:16:00 09:19:02 18° 58° (ENE) 09:22:11 437.305
CUTE 1.7 + AOD 2 21 Apr 09:17:00 09:19:01 13° 91° (E) 09:21:15 437.475
CINEMA 3 21 Apr 09:35:17 09:36:42 11° 89° (E) 09:38:27 145.822/145.860
AAUSAT CUBESAT 2 21 Apr 09:36:51 09:38:33 12° 90° (E) 09:40:29 437.432
Cosmos 2491 21 Apr 09:43:31 09:48:09 16° 63° (ENE) 09:53:24 435.465 / 435.565
DOVE 4 21 Apr 09:48:29 09:53:03 34° 96° (E) 09:57:49 437.250
Oscar 11 21 Apr 10:05:52 10:07:41 13° 90° (E) 10:09:45 145.826/435.025
CUBEBUG 2 21 Apr 10:07:40 10:09:39 13° 89° (E) 10:11:56 437.445
BRITE-PL 21 Apr 10:12:07 10:17:02 61° 284° (WNW) 10:22:18 437.365/2234.400
COMPASS 1 21 Apr 10:23:30 10:27:40 57° 100° (E) 10:31:46 437.405
GOMX 1 21 Apr 10:25:11 10:30:13 69° 283° (WNW) 10:35:30 467.674
HO-68 21 Apr 10:28:00 10:35:14 83° 104° (ESE) 10:42:25 435.675
ANTELSAT 21 Apr 10:38:20 10:41:49 23° 70° (ENE) 10:45:29 437.575/2403.000
SEEDS 21 Apr 10:41:05 10:45:20 68° 284° (WNW) 10:49:31 437.485
CANX-2 21 Apr 10:41:08 10:45:18 49° 285° (WNW) 10:49:25 2200.000
UWE-3 21 Apr 10:42:53 10:46:45 26° 95° (E) 10:50:42 435.000/436.395/437.385
PCSat 21 Apr 10:44:33 10:49:46 49° 301° (WNW) 10:55:02 145.827
YUBILEINY 21 Apr 10:48:04 10:53:33 20° 82° (E) 10:59:34 435.215
CUTE 1.7 + AOD 2 21 Apr 10:51:08 10:55:12 42° 286° (WNW) 10:59:13 437.475
O/OREOS (USA 219) 21 Apr 10:54:29 10:58:38 37° 255° (WSW) 11:02:43 437.305
NANOSAT C BR1 21 Apr 10:57:07 10:59:42 17° 69° (ENE) 11:02:26 145.865
POPSAT HIP 1 21 Apr 10:57:55 11:00:35 17° 69° (ENE) 11:03:23 437.405
FUNcube-1 21 Apr 11:05:34 11:09:47 35° 97° (E) 11:13:59 145.935
CINEMA 3 21 Apr 11:09:27 11:14:22 68° 285° (WNW) 11:19:22 145.822/145.860
AAUSAT CUBESAT 2 21 Apr 11:10:28 11:14:28 43° 286° (WNW) 11:18:24 437.432
DELFI C3 21 Apr 11:17:48 11:21:51 72° 100° (E) 11:25:51 145.870
VELOX 1 21 Apr 11:18:36 11:20:11 12° 90° (E) 11:22:02 145.980
UKube-1 21 Apr 11:19:33 11:23:13 27° 96° (E) 11:26:57 .
POLYITAN 1 21 Apr 11:24:04 11:27:52 35° 73° (ENE) 11:31:45 437.675
DOVE 4 21 Apr 11:26:31 11:30:39 25° 289° (WNW) 11:34:47 437.250
ZACube-1 21 Apr 11:28:37 11:33:13 67° 101° (E) 11:37:47 437.345
TIGRISAT 21 Apr 11:30:01 11:34:26 88° 77° (ENE) 11:39:00 435.000
DUCHIFAT 1 21 Apr 11:31:11 11:35:05 40° 74° (ENE) 11:39:03 145.980
UNISAT 6 21 Apr 11:32:00 11:36:27 85° 258° (WSW) 11:41:02 437.425
AISAT 21 Apr 11:33:09 11:36:17 19° 94° (E) 11:39:32 437.250
Cosmos 2491 21 Apr 11:37:38 11:46:31 88° 83° (E) 11:55:22 435.465 / 435.565
Oscar 11 21 Apr 11:40:00 11:44:11 46° 286° (WNW) 11:48:19 145.826/435.025
CUBEBUG 2 21 Apr 11:42:04 11:46:45 56° 285° (WNW) 11:51:24 437.445
QB50P1 21 Apr 11:45:09 11:49:17 63° 76° (ENE) 11:53:28 145.935-145.965
BUGSAT 1 21 Apr 11:47:57 11:51:46 44° 74° (ENE) 11:55:37 437.445
ESTCUBE 1 21 Apr 11:55:03 11:57:56 17° 92° (E) 12:01:00 437.505/2401.250
COMPASS 1 21 Apr 12:01:57 12:02:54 10° 293° (WNW) 12:03:36 437.405
HUMSAT D 21 Apr 12:03:48 12:08:10 80° 102° (ESE) 12:12:30 437.325/437.525
DX 1 21 Apr 12:04:56 12:09:18 79° 284° (WNW) 12:13:39 434.975-435.025
QB50P2 21 Apr 12:09:24 12:13:34 63° 259° (W) 12:17:46 145.880/145.840
ANTELSAT 21 Apr 12:14:39 12:18:30 28° 265° (W) 12:22:23 437.575/2403.000
HO-68 21 Apr 12:17:43 12:22:13 17° 300° (WNW) 12:26:20 435.675
UWE-3 21 Apr 12:19:14 12:23:14 27° 289° (WNW) 12:27:08 435.000/436.395/437.385
50 SAT 21 Apr 12:25:11 12:29:15 89° 98° (E) 12:33:17 437.505
NANOSAT C BR1 21 Apr 12:31:28 12:35:19 34° 263° (W) 12:39:09 145.865
POPSAT HIP 1 21 Apr 12:32:24 12:36:14 33° 263° (W) 12:40:03 437.405
YUBILEINY 21 Apr 12:40:44 12:49:35 76° 278° (W) 12:58:26 435.215
FUNcube-1 21 Apr 12:42:31 12:45:52 20° 291° (WNW) 12:49:06 145.935
AIST 1 21 Apr 12:46:21 12:49:56 27° 76° (ENE) 12:53:36
BEESAT 2 21 Apr 12:50:16 12:51:50 12° 45° (NE) 12:53:33 435.950
VELOX 1 21 Apr 12:52:48 12:57:06 51° 286° (WNW) 13:01:24 145.980
BEESAT 3 21 Apr 12:54:30 12:56:56 15° 48° (NE) 12:59:29 437.485
UKube-1 21 Apr 12:55:52 12:59:15 22° 290° (WNW) 13:02:32 .
POLYITAN 1 21 Apr 13:01:17 13:03:57 16° 268° (W) 13:06:27 437.675
TISAT 1 21 Apr 13:05:05 13:07:58 18° 93° (E) 13:10:59 437.305
ZACube-1 21 Apr 13:07:44 13:09:04 11° 294° (WNW) 13:10:08 437.345
SO-50 21 Apr 13:07:57 13:12:19 46° 115° (ESE) 13:16:54 436.795
AISAT 21 Apr 13:08:58 13:12:57 32° 288° (WNW) 13:16:54 437.250
DUCHIFAT 1 21 Apr 13:08:59 13:11:10 13° 269° (W) 13:13:07 145.980
CUBEBUG 1 21 Apr 13:12:26 13:16:45 65° 285° (WNW) 13:21:04 437.445
SPROUT 21 Apr 13:16:15 13:20:07 32° 97° (E) 13:24:01 437.525
BUGSAT 1 21 Apr 13:26:11 13:27:34 11° 269° (W) 13:28:41 437.445
ESTCUBE 1 21 Apr 13:30:51 13:34:59 36° 287° (WNW) 13:39:03 437.505/2401.250
Cosmos 2491 21 Apr 13:37:25 13:42:23 16° 279° (W) 13:46:42 435.465 / 435.565
Oscar 19 21 Apr 13:42:36 13:47:15 37° 71° (ENE) 13:51:59 437.125/150
RS-15 21 Apr 13:47:44 13:50:27 12° 100° (E) 13:54:22 29.354- 29.394
ITUPSAT 1 21 Apr 14:06:00 14:07:59 13° 90° (E) 14:10:16 437.325
ITAMSAT 1 21 Apr 14:07:49 14:11:22 20° 67° (ENE) 14:15:07 435.822/435.867
Gurwin Techsat 1B 21 Apr 14:09:45 14:13:05 18° 66° (ENE) 14:16:37 435.225
ISS 21 Apr 14:19:54 14:23:08 75° 318° (NW) 14:26:24 145.825
AIST 1 21 Apr 14:24:21 14:27:27 19° 271° (W) 14:30:25
BEESAT 2 21 Apr 14:26:21 14:30:26 64° 243° (WSW) 14:34:25 435.950
Cosmos 2504 21 Apr 14:28:45 14:37:12 55° 91° (E) 14:45:49 435.465 / 435.565
BEESAT 3 21 Apr 14:31:20 14:35:14 44° 245° (WSW) 14:39:03 437.485
AO-7 21 Apr 14:33:24 14:34:12 10° 50° (NE) 14:35:39 29.400- 29.500
BEESAT 21 Apr 14:38:12 14:42:22 31° 96° (E) 14:46:35 436.000
SWISSCUBE 21 Apr 14:39:46 14:44:05 35° 97° (E) 14:48:26 437.505
TISAT 1 21 Apr 14:40:03 14:43:50 31° 288° (WNW) 14:47:33 437.305
YUBILEINY 21 Apr 14:44:26 14:48:16 13° 300° (WNW) 14:51:21 435.215
SO-50 21 Apr 14:49:42 14:53:10 20° 313° (NW) 14:56:35 436.795
SPROUT 21 Apr 14:52:56 14:56:00 19° 291° (WNW) 14:58:57 437.525
AIST 2 21 Apr 14:57:16 15:01:30 82° 60° (ENE) 15:05:40 435.215
Oscar 19 21 Apr 15:22:41 15:26:44 22° 266° (W) 15:30:39 437.125/150
HORYU 2 21 Apr 15:30:08 15:33:12 19° 69° (ENE) 15:36:26 437.375
ITUPSAT 1 21 Apr 15:41:38 15:46:18 54° 286° (WNW) 15:50:55 437.325
ITAMSAT 1 21 Apr 15:45:39 15:50:35 44° 261° (W) 15:55:32 435.822/435.867
Gurwin Techsat 1B 21 Apr 15:47:31 15:52:42 52° 260° (W) 15:57:53 435.225
KKS-1 21 Apr 15:50:17 15:54:17 32° 97° (E) 15:58:18 437.445
RS-15 21 Apr 15:50:29 16:01:15 72° 115° (ESE) 16:12:14 29.354- 29.394
JAS-2 21 Apr 15:51:57 15:58:35 33° 67° (ENE) 16:05:22 435.910
ISS 21 Apr 15:58:46 16:00:01 12° 336° (NNW) 16:01:11 145.825
BEESAT 21 Apr 16:16:16 16:20:05 24° 291° (WNW) 16:23:46 436.000
AO-7 21 Apr 16:17:29 16:25:29 57° 68° (ENE) 16:33:34 29.400- 29.500
SWISSCUBE 21 Apr 16:18:10 16:21:45 21° 291° (WNW) 16:25:12 437.505
Cosmos 2504 21 Apr 16:23:28 16:31:07 30° 289° (WNW) 16:38:32 435.465 / 435.565
STARS 21 Apr 16:55:58 17:00:25 71° 284° (WNW) 17:04:50 437.465
GONETS M04 21 Apr 17:03:53 17:11:23 35° 87° (E) 17:19:09
HORYU 2 21 Apr 17:05:33 17:09:38 34° 263° (W) 17:13:44 437.375
MOZHAYETS 4 21 Apr 17:20:30 17:23:40 19° 92° (E) 17:27:00
KKS-1 21 Apr 17:27:22 17:30:44 21° 291° (WNW) 17:33:59 437.445
JAS-2 21 Apr 17:35:48 17:43:19 50° 262° (W) 17:50:51 435.910
PCSat 21 Apr 17:55:51 17:56:04 10° 42° (NE) 17:56:37 145.827
CUTE-I 21 Apr 18:02:17 18:05:56 20° 67° (ENE) 18:09:46 437.470
RS-15 21 Apr 18:05:08 18:14:42 32° 319° (NW) 18:24:16 29.354- 29.394
Cubesat XI-IV 21 Apr 18:09:59 18:14:05 24° 68° (ENE) 18:18:19 437.490
AO-7 21 Apr 18:11:47 18:18:44 28° 265° (W) 18:25:25 29.400- 29.500
VERMONT LUNAR 21 Apr 18:34:00 18:37:02 31° 149° (SSE) 18:40:05 437.305
CUBESAT XI-V 21 Apr 18:45:56 18:46:49 11° 89° (E) 18:48:02 437.345
M-CUBED/EXP-1 PRIME 21 Apr 18:47:25 18:49:08 12° 93° (E) 18:50:59 437.505
MOZHAYETS 4 21 Apr 18:56:51 19:01:02 34° 287° (WNW) 19:05:08
GONETS M04 21 Apr 18:59:45 19:08:04 45° 284° (WNW) 19:16:22
Cosmos 2499 21 Apr 19:04:22 19:12:07 37° 88° (E) 19:20:01 435.465 / 435.565
CUSAT 1 21 Apr 19:19:47 19:22:35 30° 287° (WNW) 19:26:03 437.405
DANDE 21 Apr 19:29:38 19:32:17 30° 286° (WNW) 19:35:29 436.750
AUBIESAT-1 21 Apr 19:32:20 19:36:18 39° 102° (ESE) 19:39:57 437.475
PCSat 21 Apr 19:35:12 19:40:37 70° 63° (ENE) 19:46:00 145.827
PRISM 21 Apr 19:37:37 19:40:56 24° 95° (E) 19:44:19 437.425
CUTE-I 21 Apr 19:40:36 19:45:42 46° 261° (W) 19:50:49 437.470
Cubesat XI-IV 21 Apr 19:49:02 19:54:00 38° 262° (W) 19:58:56 437.490
PHONESAT 2.4 21 Apr 19:54:11 19:57:38 47° 152° (SSE) 20:01:06 2401.200-2431.200
VERMONT LUNAR 21 Apr 20:11:07 20:14:28 56° 344° (NNW) 20:17:48 437.305
STRAND 1 21 Apr 20:14:47 20:19:43 50° 99° (E) 20:24:40 437.568
CUBESAT XI-V 21 Apr 20:20:12 20:24:45 60° 285° (WNW) 20:29:16 437.345
M-CUBED/EXP-1 PRIME 21 Apr 20:20:17 20:24:24 44° 292° (WNW) 20:28:10 437.505
RS-15 21 Apr 20:27:37 20:32:20 13° 352° (N) 20:36:56 29.354- 29.394
ISS 21 Apr 20:49:51 20:52:47 31° 35° (NE) 20:55:44 145.825
DOVE 4 21 Apr 20:52:38 20:55:40 20° 70° (ENE) 20:58:54 437.250
HO-68 21 Apr 20:53:08 20:59:51 46° 69° (ENE) 21:06:41 435.675
Cosmos 2499 21 Apr 20:56:44 21:05:09 45° 284° (WNW) 21:13:25 435.465 / 435.565
AUBIESAT-1 21 Apr 21:08:10 21:10:44 15° 298° (WNW) 21:13:02 437.475
COMPASS 1 21 Apr 21:12:12 21:15:44 27° 72° (ENE) 21:19:21 437.405
PRISM 21 Apr 21:13:06 21:16:19 22° 290° (WNW) 21:19:25 437.425
BRITE-PL 21 Apr 21:20:56 21:25:03 68° 259° (W) 21:29:12 437.365/2234.400
PCSat 21 Apr 21:21:01 21:23:30 13° 255° (WSW) 21:25:39 145.827
SEEDS 21 Apr 21:29:57 21:34:06 55° 75° (ENE) 21:38:17 437.485
CANX-2 21 Apr 21:30:39 21:34:56 78° 77° (ENE) 21:39:15 2200.000
GOMX 1 21 Apr 21:31:07 21:35:15 86° 258° (WSW) 21:39:31 467.674
PHONESAT 2.4 21 Apr 21:32:27 21:35:56 47° 347° (NNW) 21:39:25 2401.200-2431.200
UWE-3 21 Apr 21:38:42 21:40:54 14° 67° (ENE) 21:43:20 435.000/436.395/437.385
CUTE 1.7 + AOD 2 21 Apr 21:40:29 21:44:46 89° 257° (WSW) 21:49:06 437.475
SO-50 21 Apr 21:42:40 21:46:29 22° 48° (NE) 21:50:21 436.795
VERMONT LUNAR 21 Apr 21:49:12 21:52:19 33° 0° (N) 21:55:26 437.305
STRAND 1 21 Apr 21:55:14 21:58:34 17° 294° (WNW) 22:01:42 437.568
AAUSAT CUBESAT 2 21 Apr 21:57:49 22:02:01 83° 80° (E) 22:06:16 437.432
FUNcube-1 21 Apr 21:59:25 22:02:22 19° 69° (ENE) 22:05:31 145.935
DELFI C3 21 Apr 22:02:43 22:06:13 29° 72° (ENE) 22:09:48 145.870
CINEMA 3 21 Apr 22:08:27 22:12:40 78° 76° (ENE) 22:17:04 145.822/145.860
UKube-1 21 Apr 22:12:33 22:15:15 17° 68° (ENE) 22:18:05 .
ZACube-1 21 Apr 22:21:56 22:25:48 35° 73° (ENE) 22:29:48 437.345
ISS 21 Apr 22:26:30 22:29:01 20° 230° (SW) 22:31:29 145.825
AISAT 21 Apr 22:29:45 22:31:32 13° 67° (ENE) 22:33:32 437.250
DOVE 4 21 Apr 22:29:46 22:33:20 27° 265° (W) 22:36:56 437.250
Oscar 11 21 Apr 22:31:18 22:35:39 89° 257° (WSW) 22:40:02 145.826/435.025
CUBEBUG 2 21 Apr 22:37:15 22:41:30 86° 79° (ENE) 22:45:57 437.445
HO-68 21 Apr 22:41:35 22:47:46 30° 265° (W) 22:53:50 435.675
Cosmos 2491 21 Apr 22:41:43 22:47:12 20° 83° (E) 22:53:13 435.465 / 435.565
RS-15 21 Apr 22:43:28 22:51:11 20° 28° (NNE) 22:59:33 29.354- 29.394
COMPASS 1 21 Apr 22:48:08 22:51:25 21° 266° (W) 22:54:37 437.405
HUMSAT D 21 Apr 22:52:50 22:56:40 36° 73° (ENE) 23:00:36 437.325/437.525
ESTCUBE 1 21 Apr 22:53:24 22:55:03 12° 67° (ENE) 22:56:58 437.505/2401.250
YUBILEINY 21 Apr 22:55:01 23:03:21 48° 76° (ENE) 23:11:41 435.215
DX 1 21 Apr 22:57:28 23:01:43 60° 75° (ENE) 23:05:59 434.975-435.025
50 SAT 21 Apr 23:07:53 23:11:25 32° 73° (ENE) 23:15:03 437.505
SEEDS 21 Apr 23:09:40 23:10:19 10° 271° (W) 23:10:41 437.485
PHONESAT 2.4 21 Apr 23:11:15 23:14:36 36° 4° (N) 23:17:57 2401.200-2431.200
UWE-3 21 Apr 23:13:00 23:17:04 43° 262° (W) 23:21:17 435.000/436.395/437.385
SO-50 21 Apr 23:22:33 23:27:15 44° 245° (WSW) 23:31:51 436.795
O/OREOS (USA 219) 21 Apr 23:24:23 23:28:31 35° 105° (ESE) 23:32:42 437.305
TIGRISAT 21 Apr 23:25:23 23:29:09 24° 94° (E) 23:33:00 435.000
VERMONT LUNAR 21 Apr 23:26:51 23:30:11 57° 17° (NNE) 23:33:30 437.305
UNISAT 6 21 Apr 23:27:33 23:31:28 26° 95° (E) 23:35:26 437.425
FUNcube-1 21 Apr 23:34:41 23:38:30 31° 264° (W) 23:42:23 145.935
QB50P1 21 Apr 23:35:04 23:37:00 13° 91° (E) 23:39:11 145.935-145.965
DELFI C3 21 Apr 23:38:32 23:41:25 18° 267° (W) 23:44:12 145.870
UKube-1 21 Apr 23:47:09 23:51:09 36° 262° (W) 23:55:07 .
VELOX 1 21 Apr 23:47:11 23:51:35 85° 256° (WSW) 23:56:00 145.980
QB50P2 21 Apr 23:58:11 00:01:45 26° 95° (E) 00:05:23 145.880/145.840
ZACube-1 21 Apr 23:59:30 00:02:21 17° 268° (W) 00:05:03 437.345
AISAT 22 Apr 00:03:27 00:07:44 52° 260° (W) 00:12:02 437.250
CUBEBUG 1 22 Apr 00:05:26 00:09:44 70° 76° (ENE) 00:14:03 437.445
SPROUT 22 Apr 00:08:31 00:11:20 18° 69° (ENE) 00:14:16 437.525
ANTELSAT 22 Apr 00:08:49 00:13:34 78° 102° (ESE) 00:18:13 437.575/2403.000
NANOSAT C BR1 22 Apr 00:19:02 00:23:08 44° 99° (E) 00:27:15 145.865
POPSAT HIP 1 22 Apr 00:20:11 00:24:19 46° 99° (E) 00:28:28 437.405
ESTCUBE 1 22 Apr 00:27:03 00:31:30 57° 260° (W) 00:35:58 437.505/2401.250
Cosmos 2504 22 Apr 00:28:33 00:32:23 15° 62° (ENE) 00:36:40 435.465 / 435.565
HUMSAT D 22 Apr 00:30:06 00:32:38 15° 269° (W) 00:35:00 437.325/437.525
Cosmos 2491 22 Apr 00:34:36 00:43:17 74° 278° (W) 00:52:04 435.465 / 435.565
50 SAT 22 Apr 00:43:58 00:46:24 15° 268° (W) 00:48:41 437.505
POLYITAN 1 22 Apr 00:47:47 00:52:06 78° 285° (WNW) 00:56:25 437.675
PHONESAT 2.4 22 Apr 00:49:33 00:53:08 79° 20° (NNE) 00:56:41 2401.200-2431.200
YUBILEINY 22 Apr 00:52:21 00:59:56 33° 273° (W) 01:07:13 435.215
DUCHIFAT 1 22 Apr 00:54:16 00:58:31 68° 284° (WNW) 01:02:46 145.980
RS-15 22 Apr 00:55:06 01:06:36 65° 56° (NE) 01:18:37 29.354- 29.394
TIGRISAT 22 Apr 01:01:48 01:05:54 29° 289° (WNW) 01:09:53 435.000
UNISAT 6 22 Apr 01:04:12 01:08:11 27° 289° (WNW) 01:12:03 437.425
VERMONT LUNAR 22 Apr 01:04:36 01:07:35 29° 212° (SSW) 01:10:32 437.305
O/OREOS (USA 219) 22 Apr 01:04:38 01:08:04 20° 301° (WNW) 01:11:22 437.305
BUGSAT 1 22 Apr 01:08:06 01:12:13 66° 283° (WNW) 01:16:20 437.445
QB50P1 22 Apr 01:09:04 01:13:09 43° 286° (WNW) 01:17:12 145.935-145.965
ITUPSAT 1 22 Apr 01:11:01 01:12:36 12° 65° (ENE) 01:14:26 437.325
AIST 1 22 Apr 01:13:24 01:16:23 19° 89° (E) 01:19:29
TISAT 1 22 Apr 01:28:45 01:32:54 62° 259° (W) 01:37:03 437.305
QB50P2 22 Apr 01:34:09 01:37:34 23° 289° (WNW) 01:40:52 145.880/145.840
BEESAT 22 Apr 01:42:05 01:45:58 26° 70° (ENE) 01:49:59 436.000
SPROUT 22 Apr 01:43:20 01:47:12 33° 263° (W) 01:51:03 437.525
SWISSCUBE 22 Apr 01:43:39 01:47:44 29° 71° (ENE) 01:51:55 437.505
NANOSAT C BR1 22 Apr 01:56:23 01:58:39 14° 292° (WNW) 02:00:43 145.865
POPSAT HIP 1 22 Apr 01:57:41 01:59:51 13° 292° (WNW) 02:01:49 437.405
Oscar 19 22 Apr 01:58:12 02:01:20 17° 91° (E) 02:04:42 437.125/150
Cosmos 2504 22 Apr 02:19:10 02:27:21 90° 264° (W) 02:34:53 435.465 / 435.565
PHONESAT 2.4 22 Apr 02:28:24 02:31:09 21° 215° (SW) 02:33:49 2401.200-2431.200
Cosmos 2491 22 Apr 02:38:45 02:42:05 12° 301° (WNW) 02:44:40 435.465 / 435.565
ITUPSAT 1 22 Apr 02:45:13 02:50:00 67° 259° (W) 02:54:47 437.325
KKS-1 22 Apr 02:46:16 02:49:29 21° 70° (ENE) 02:52:51 437.445
AIST 1 22 Apr 02:50:06 02:53:53 28° 283° (WNW) 02:57:34
JUGNU 22 Apr 03:00:13 03:01:24 11° 167° (SSE) 03:02:42 437.505
RS-15 22 Apr 03:08:25 03:18:33 34° 253° (WSW) 03:28:35 29.354- 29.394
GONETS M04 22 Apr 03:19:37 03:23:20 14° 61° (ENE) 03:27:46
BEESAT 22 Apr 03:19:37 03:23:45 28° 264° (W) 03:27:50 436.000
SWISSCUBE 22 Apr 03:21:39 03:25:36 25° 265° (W) 03:29:27 437.505
Oscar 19 22 Apr 03:36:00 03:41:02 50° 287° (WNW) 03:46:02 437.125/150
STARS 22 Apr 03:49:46 03:54:06 68° 76° (ENE) 03:58:29 437.465
ITAMSAT 1 22 Apr 04:01:12 04:06:23 83° 101° (E) 04:11:35 435.822/435.867
Gurwin Techsat 1B 22 Apr 04:06:36 04:11:56 81° 102° (ESE) 04:17:15 435.225
